SCP
0 0 0 0 0 0 0 0 0 0 0 0 0 0 0 0 0 0 0 0 0 0
0 0 0 0 0 0 0 0 0 0 0 0 0 0 0 0 0 0 0 0 0 0
0 0 0 0 0 0 0 0 0 0 0 0 0 0 0 0 0 0 0 0 0 0
0 0 0 0 0 0 0 0 0 0 0 0 0 0 0 0 0 0 0 0 0 0
0 0 0 0 0 0 0 0 0 0 0 0 0 0 0 0 0 0 0 0 0 0
0 0 0 0 0 0 0 0 0 0 0 0 0 0 0 0 0 0 0 0 0 0
0 0 0 0 0 0 0 0 0 0 0 0 0 0 0 0 0 0 0 0 0 0
0 0 0 0 0 0 0 0 0 0 0 0 0 0 0 0 0 0 0 0 0 0
0 0 0 0 0 0 0 0 0 0 0 0 0 0 0 0 0 0 0 0 0 0
0 0 0 0 0 0 0 0 0 0 0 0 0 0 0 0 0 0 0 0 0 0
0 0 0 0 0 0 0 0 0 0 0 0 0 0 0 0 0 0 0 0 0 0
0 0 0 0 0 0 0 0 0 0 0 0 0 0 0 0 0 0 0 0 0 0
0 0 0 0 0 0 0 0 0 0 0 0 0 0 0 0 0 0 0 0 0 0
0 0 0 0 0 0 0 0 0 0 0 0 0 0 0 0 0 0 0 0 0 0
Wind_Speed_500mb
43 46 48 47 46 46 44 44 45 46 45 45 44 44 43 43 42 41 41 39 43 43
32 33 33 33 32 32 33 34 33 36 36 36 36 37 38 41 40 37 39 44 40 45
22 20 19 19 19 22 23 26 27 28 28 29 30 30 30 29 30 32 37 41 44 46
17 15 15 15 15 17 18 19 21 24 25 27 30 33 31 32 35 37 40 40 43 44
14 11 9 8 7 8 10 12 14 15 18 20 21 23 26 30 33 35 36 37 38 39
11 8 6 3 2 3 6 9 11 13 14 16 18 20 21 22 24 27 29 31 33 34
8 6 3 1 2 4 6 8 10 11 13 16 18 18 20 22 23 25 26 28 30 32
5 4 3 3 4 5 7 8 10 12 14 17 19 20 17 18 21 22 24 26 28 31
7 7 8 10 10 11 12 12 12 13 14 18 21 25 25 21 23 25 27 29 30 32
9 10 11 12 13 15 15 15 15 16 17 19 22 26 32 24 27 29 30 32 33 34
11 12 13 14 15 16 16 16 16 16 16 18 21 24 30 25 25 27 28 30 32 34
15 15 14 14 14 14 13 13 13 12 13 15 19 23 29 29 26 26 27 29 30 32
12 14 14 12 11 11 10 10 11 12 13 14 16 19 21 23 22 25 26 26 28 31
6 6 7 7 7 7 7 8 9 10 11 12 14 17 19 19 22 25 26 27 29 29
Wind_Direction_500mb
226 230 235 240 246 250 252 253 256 261 265 265 263 262 261 262 263 266 268 269 270 267
206 214 222 229 235 241 246 250 254 260 261 260 261 262 261 261 262 263 267 267 265 274
168 180 193 208 220 236 244 246 248 252 255 259 262 266 270 274 271 265 262 261 262 266
158 173 190 207 219 229 240 248 252 256 259 261 267 271 268 272 272 270 269 269 269 271
144 154 171 189 210 231 253 265 272 275 276 275 272 269 264 262 265 268 271 273 275 277
117 121 128 141 185 256 271 276 279 281 279 276 274 274 272 272 274 277 280 283 283 283
102 99 100 96 284 280 284 286 285 288 289 285 283 283 284 284 284 286 288 291 293 295
64 50 19 329 299 294 294 294 296 293 290 288 289 291 289 292 291 292 295 297 298 302
356 346 332 324 317 311 305 303 301 300 299 302 304 306 304 311 309 307 306 304 304 303
322 315 311 308 306 302 298 296 296 298 298 298 299 305 307 318 312 309 310 310 310 311
301 300 299 298 298 296 295 292 292 292 297 301 306 315 315 333 325 321 321 322 322 325
309 307 306 307 306 307 309 313 315 318 321 318 320 325 328 339 337 331 333 333 336 338
299 302 305 310 314 319 326 331 336 337 337 337 335 332 335 342 348 341 346 351 353 352
294 296 304 313 322 328 332 347 352 350 355 357 355 353 357 4 358 350 349 354 351 352
Wind_Speed_850mb
43 46 48 47 46 46 44 44 45 46 45 45 44 44 43 43 42 41 41 39 43 43
32 33 33 33 32 32 33 34 33 36 36 36 36 37 38 41 40 37 39 44 40 45
22 20 19 19 19 22 23 26 27 28 28 29 30 30 30 29 30 32 37 41 44 46
17 15 15 15 15 17 18 19 21 24 25 27 30 33 31 32 35 37 40 40 43 44
14 11 9 8 7 8 10 12 14 15 18 20 21 23 26 30 33 35 36 37 38 39
11 8 6 3 2 3 6 9 11 13 14 16 18 20 21 22 24 27 29 31 33 34
8 6 3 1 2 4 6 8 10 11 13 16 18 18 20 22 23 25 26 28 30 32
5 4 3 3 4 5 7 8 10 12 14 17 19 20 17 18 21 22 24 26 28 31
7 7 8 10 10 11 12 12 12 13 14 18 21 25 25 21 23 25 27 29 30 32
9 10 11 12 13 15 15 15 15 16 17 19 22 26 32 24 27 29 30 32 33 34
11 12 13 14 15 16 16 16 16 16 16 18 21 24 30 25 25 27 28 30 32 34
15 15 14 14 14 14 13 13 13 12 13 15 19 23 29 29 26 26 27 29 30 32
12 14 14 12 11 11 10 10 11 12 13 14 16 19 21 23 22 25 26 26 28 31
6 6 7 7 7 7 7 8 9 10 11 12 14 17 19 19 22 25 26 27 29 29
Wind_Direction_850mb
226 230 235 240 246 250 252 253 256 261 265 265 263 262 261 262 263 266 268 269 270 267
206 214 222 229 235 241 246 250 254 260 261 260 261 262 261 261 262 263 267 267 265 274
168 180 193 208 220 236 244 246 248 252 255 259 262 266 270 274 271 265 262 261 262 266
158 173 190 207 219 229 240 248 252 256 259 261 267 271 268 272 272 270 269 269 269 271
144 154 171 189 210 231 253 265 272 275 276 275 272 269 264 262 265 268 271 273 275 277
117 121 128 141 185 256 271 276 279 281 279 276 274 274 272 272 274 277 280 283 283 283
102 99 100 96 284 280 284 286 285 288 289 285 283 283 284 284 284 286 288 291 293 295
64 50 19 329 299 294 294 294 296 293 290 288 289 291 289 292 291 292 295 297 298 302
356 346 332 324 317 311 305 303 301 300 299 302 304 306 304 311 309 307 306 304 304 303
322 315 311 308 306 302 298 296 296 298 298 298 299 305 307 318 312 309 310 310 310 311
301 300 299 298 298 296 295 292 292 292 297 301 306 315 315 333 325 321 321 322 322 325
309 307 306 307 306 307 309 313 315 318 321 318 320 325 328 339 337 331 333 333 336 338
299 302 305 310 314 319 326 331 336 337 337 337 335 332 335 342 348 341 346 351 353 352
294 296 304 313 322 328 332 347 352 350 355 357 355 353 357 4 358 350 349 354 351 352